QPF
0.00 0.00 0.00 0.00 0.00 0.00 0.00 0.00 0.00 0.00 0.00 0.01 0.01 0.00 0.00 0.00 0.00 0.00 0.01 0.01 0.01 0.01 0.01 0.01 0.01 0.01 0.01 0.00 0.02 0.03 0.04 0.06 0.07 0.07 0.05 0.04 0.04 0.04 0.05 0.05 0.05 0.06 0.05 0.05
0.00 0.00 0.00 0.00 0.00 0.00 0.00 0.00 0.00 0.00 0.00 0.00 0.00 0.00 0.00 0.00 0.00 0.00 0.00 0.01 0.01 0.00 0.01 0.01 0.02 0.02 0.01 0.01 0.02 0.02 0.03 0.04 0.06 0.05 0.04 0.04 0.04 0.03 0.03 0.04 0.04 0.04 0.04 0.05
0.00 0.00 0.00 0.00 0.00 0.00 0.00 0.00 0.00 0.00 0.00 0.00 0.00 0.00 0.00 0.00 0.00 0.00 0.00 0.00 0.01 0.01 0.01 0.01 0.01 0.01 0.02 0.03 0.04 0.03 0.04 0.04 0.05 0.04 0.05 0.05 0.05 0.04 0.04 0.05 0.05 0.04 0.04 0.04
0.00 0.00 0.00 0.00 0.00 0.00 0.00 0.00 0.00 0.00 0.00 0.00 0.00 0.00 0.00 0.00 0.00 0.00 0.00 0.01 0.01 0.01 0.01 0.01 0.01 0.01 0.03 0.04 0.05 0.05 0.06 0.07 0.05 0.05 0.05 0.05 0.05 0.05 0.06 0.06 0.06 0.05 0.04 0.04
0.00 0.00 0.00 0.00 0.00 0.00 0.00 0.00 0.00 0.00 0.00 0.00 0.00 0.01 0.02 0.00 0.00 0.00 0.00 0.01 0.01 0.02 0.01 0.01 0.02 0.02 0.02 0.03 0.04 0.05 0.06 0.06 0.05 0.05 0.04 0.04 0.05 0.08 0.08 0.08 0.07 0.06 0.05 0.04
0.00 0.00 0.00 0.00 0.00 0.00 0.00 0.01 0.00 0.00 0.00 0.00 0.00 0.02 0.03 0.01 0.00 0.00 0.00 0.01 0.01 0.02 0.01 0.01 0.01 0.01 0.01 0.02 0.03 0.03 0.03 0.04 0.04 0.05 0.05 0.05 0.06 0.08 0.10 0.10 0.10 0.08 0.06 0.04
0.00 0.00 0.01 0.00 0.00 0.00 0.01 0.01 0.01 0.00 0.01 0.01 0.01 0.02 0.01 0.00 0.00 0.00 0.01 0.01 0.01 0.01 0.01 0.01 0.01 0.01 0.01 0.02 0.02 0.02 0.02 0.03 0.05 0.05 0.05 0.06 0.07 0.07 0.07 0.06 0.06 0.06 0.05 0.03
0.00 0.00 0.02 0.01 0.00 0.01 0.02 0.01 0.01 0.01 0.01 0.03 0.03 0.02 0.01 0.02 0.01 0.00 0.01 0.01 0.01 0.02 0.02 0.03 0.02 0.02 0.02 0.03 0.03 0.03 0.03 0.03 0.04 0.03 0.04 0.05 0.05 0.05 0.05 0.05 0.05 0.05 0.03 0.03
0.01 0.02 0.01 0.00 0.00 0.00 0.02 0.03 0.02 0.01 0.00 0.01 0.01 0.01 0.00 0.01 0.01 0.01 0.01 0.02 0.02 0.02 0.04 0.04 0.04 0.04 0.04 0.03 0.03 0.02 0.02 0.02 0.03 0.03 0.04 0.04 0.05 0.05 0.04 0.04 0.04 0.04 0.03 0.03
0.01 0.01 0.01 0.00 0.01 0.02 0.01 0.01 0.02 0.01 0.00 0.00 0.01 0.01 0.01 0.01 0.02 0.02 0.02 0.02 0.03 0.03 0.03 0.04 0.04 0.05 0.04 0.04 0.04 0.04 0.04 0.04 0.04 0.04 0.04 0.05 0.05 0.04 0.03 0.03 0.03 0.02 0.02 0.03
0.02 0.02 0.02 0.01 0.01 0.03 0.02 0.00 0.01 0.01 0.00 0.00 0.01 0.01 0.01 0.01 0.02 0.02 0.02 0.02 0.02 0.02 0.03 0.03 0.03 0.03 0.03 0.02 0.03 0.03 0.03 0.04 0.05 0.04 0.04 0.04 0.04 0.04 0.03 0.03 0.03 0.03 0.02 0.02
0.04 0.04 0.03 0.02 0.01 0.01 0.01 0.00 0.00 0.00 0.00 0.01 0.01 0.01 0.02 0.02 0.02 0.02 0.02 0.02 0.02 0.01 0.01 0.01 0.01 0.01 0.02 0.02 0.02 0.03 0.03 0.04 0.05 0.04 0.03 0.03 0.03 0.04 0.04 0.04 0.04 0.04 0.03 0.02
0.03 0.03 0.02 0.02 0.01 0.01 0.01 0.01 0.00 0.00 0.00 0.00 0.01 0.01 0.01 0.01 0.01 0.01 0.01 0.01 0.01 0.01 0.01 0.02 0.01 0.02 0.02 0.02 0.02 0.03 0.03 0.03 0.03 0.03 0.03 0.03 0.03 0.03 0.03 0.04 0.04 0.04 0.03 0.02
0.03 0.03 0.03 0.02 0.02 0.01 0.01 0.01 0.01 0.01 0.01 0.02 0.02 0.02 0.01 0.01 0.00 0.00 0.00 0.00 0.00 0.00 0.01 0.01 0.01 0.01 0.01 0.02 0.02 0.03 0.03 0.02 0.02 0.02 0.03 0.04 0.05 0.04 0.04 0.05 0.05 0.04 0.04 0.03
0.02 0.03 0.04 0.03 0.02 0.01 0.01 0.01 0.01 0.01 0.01 0.01 0.01 0.01 0.01 0.01 0.01 0.00 0.00 0.00 0.00 0.01 0.01 0.01 0.01 0.02 0.02 0.02 0.02 0.03 0.03 0.02 0.02 0.01 0.02 0.03 0.05 0.06 0.06 0.06 0.06 0.06 0.05 0.04
0.04 0.03 0.04 0.04 0.03 0.01 0.01 0.00 0.00 0.01 0.01 0.01 0.01 0.01 0.01 0.01 0.01 0.01 0.01 0.01 0.01 0.01 0.02 0.02 0.03 0.03 0.02 0.02 0.02 0.03 0.03 0.01 0.01 0.01 0.01 0.02 0.02 0.03 0.04 0.05 0.05 0.05 0.04 0.04
0.05 0.04 0.03 0.03 0.03 0.02 0.01 0.00 0.00 0.00 0.00 0.00 0.01 0.01 0.01 0.02 0.02 0.02 0.02 0.03 0.03 0.02 0.02 0.01 0.01 0.02 0.02 0.02 0.03 0.03 0.02 0.02 0.01 0.01 0.01 0.01 0.02 0.02 0.03 0.03 0.04 0.03 0.03 0.03
0.08 0.06 0.03 0.02 0.02 0.01 0.00 0.00 0.00 0.00 0.00 0.00 0.00 0.00 0.02 0.03 0.03 0.03 0.03 0.03 0.03 0.02 0.01 0.01 0.01 0.01 0.01 0.02 0.02 0.02 0.02 0.02 0.02 0.02 0.02 0.02 0.01 0.01 0.02 0.03 0.03 0.02 0.02 0.02
0.10 0.09 0.04 0.03 0.04 0.02 0.00 0.00 0.00 0.00 0.00 0.00 0.01 0.01 0.02 0.03 0.04 0.04 0.03 0.03 0.03 0.02 0.01 0.01 0.02 0.01 0.02 0.01 0.02 0.03 0.02 0.02 0.02 0.02 0.02 0.02 0.02 0.01 0.01 0.02 0.02 0.02 0.02 0.02
0.06 0.05 0.04 0.04 0.04 0.03 0.01 0.00 0.00 0.00 0.00 0.01 0.01 0.01 0.02 0.02 0.02 0.02 0.03 0.04 0.04 0.03 0.02 0.02 0.02 0.02 0.02 0.02 0.03 0.03 0.02 0.01 0.02 0.02 0.02 0.02 0.02 0.01 0.01 0.01 0.01 0.02 0.02 0.03
0.02 0.01 0.01 0.03 0.04 0.03 0.01 0.00 0.00 0.01 0.01 0.01 0.01 0.02 0.02 0.01 0.01 0.02 0.04 0.05 0.05 0.03 0.03 0.03 0.03 0.03 0.03 0.04 0.04 0.03 0.03 0.02 0.02 0.02 0.01 0.01 0.01 0.01 0.01 0.01 0.01 0.01 0.02 0.03
0.03 0.02 0.01 0.01 0.01 0.01 0.01 0.00 0.00 0.01 0.01 0.01 0.01 0.01 0.02 0.02 0.02 0.03 0.03 0.04 0.04 0.02 0.02 0.02 0.03 0.04 0.03 0.04 0.05 0.06 0.05 0.04 0.03 0.03 0.02 0.01 0.02 0.01 0.01 0.01 0.01 0.01 0.01 0.01
0.04 0.02 0.02 0.01 0.01 0.01 0.01 0.01 0.01 0.01 0.00 0.01 0.01 0.02 0.02 0.03 0.04 0.04 0.03 0.04 0.04 0.02 0.02 0.03 0.02 0.03 0.03 0.03 0.05 0.06 0.05 0.05 0.05 0.04 0.03 0.02 0.02 0.02 0.01 0.01 0.01 0.01 0.01 0.01
0.03 0.02 0.02 0.02 0.01 0.02 0.02 0.01 0.01 0.01 0.00 0.01 0.01 0.01 0.02 0.02 0.03 0.03 0.04 0.02 0.02 0.01 0.01 0.01 0.01 0.01 0.02 0.03 0.04 0.04 0.05 0.06 0.06 0.06 0.04 0.03 0.02 0.01 0.01 0.02 0.02 0.02 0.02 0.03
0.02 0.02 0.02 0.02 0.03 0.03 0.03 0.02 0.02 0.02 0.01 0.02 0.02 0.02 0.01 0.02 0.02 0.03 0.03 0.02 0.02 0.01 0.02 0.01 0.01 0.01 0.02 0.02 0.02 0.02 0.02 0.02 0.02 0.02 0.02 0.02 0.02 0.02 0.02 0.02 0.02 0.02 0.02 0.02
0.03 0.04 0.03 0.03 0.03 0.03 0.03 0.03 0.03 0.03 0.03 0.03 0.03 0.02 0.01 0.01 0.02 0.02 0.02 0.02 0.02 0.01 0.02 0.02 0.01 0.01 0.01 0.01 0.01 0.01 0.01 0.01 0.01 0.02 0.02 0.02 0.02 0.03 0.03 0.03 0.03 0.03 0.02 0.02
0.04 0.04 0.04 0.04 0.03 0.04 0.04 0.04 0.04 0.03 0.02 0.01 0.02 0.01 0.01 0.01 0.01 0.02 0.02 0.02 0.01 0.01 0.01 0.01 0.01 0.01 0.01 0.01 0.01 0.01 0.01 0.01 0.01 0.02 0.02 0.02 0.03 0.03 0.03 0.03 0.03 0.02 0.01 0.01
MSLP
1009.95 1009.95 1009.91 1009.85 1009.82 1009.84 1009.92 1010.07 1010.29 1010.56 1010.88 1011.22 1011.59 1011.96 1012.34 1012.73 1013.11 1013.48 1013.82 1014.12 1014.36 1014.54 1014.64 1014.67 1014.64 1014.55 1014.43 1014.29 1014.15 1014.02 1013.90 1013.80 1013.70 1013.62 1013.56 1013.51 1013.49 1013.50 1013.56 1013.66 1013.80 1013.98 1014.19 1014.41
1010.21 1010.11 1009.92 1009.69 1009.46 1009.29 1009.22 1009.28 1009.47 1009.80 1010.24 1010.77 1011.35 1011.95 1012.54 1013.08 1013.57 1013.99 1014.34 1014.61 1014.81 1014.95 1015.04 1015.07 1015.07 1015.03 1014.96 1014.86 1014.73 1014.57 1014.39 1014.19 1013.97 1013.76 1013.57 1013.42 1013.33 1013.31 1013.36 1013.48 1013.66 1013.89 1014.15 1014.41
1010.49 1010.30 1010.00 1009.62 1009.23 1008.91 1008.72 1008.70 1008.88 1009.26 1009.80 1010.49 1011.25 1012.03 1012.77 1013.45 1014.02 1014.48 1014.83 1015.08 1015.25 1015.37 1015.45 1015.51 1015.55 1015.57 1015.56 1015.51 1015.40 1015.23 1014.99 1014.70 1014.37 1014.03 1013.72 1013.46 1013.28 1013.20 1013.22 1013.35 1013.55 1013.81 1014.10 1014.38
1010.73 1010.48 1010.09 1009.62 1009.13 1008.71 1008.43 1008.37 1008.54 1008.95 1009.58 1010.37 1011.26 1012.17 1013.03 1013.79 1014.41 1014.89 1015.23 1015.46 1015.61 1015.71 1015.80 1015.89 1015.98 1016.06 1016.12 1016.12 1016.04 1015.86 1015.59 1015.23 1014.80 1014.35 1013.92 1013.55 1013.28 1013.13 1013.12 1013.22 1013.42 1013.69 1013.98 1014.28
1010.86 1010.58 1010.15 1009.64 1009.10 1008.64 1008.33 1008.24 1008.41 1008.85 1009.53 1010.39 1011.36 1012.34 1013.26 1014.06 1014.71 1015.18 1015.51 1015.71 1015.83 1015.92 1016.02 1016.13 1016.27 1016.42 1016.53 1016.59 1016.54 1016.38 1016.08 1015.67 1015.17 1014.63 1014.10 1013.63 1013.28 1013.06 1012.98 1013.04 1013.22 1013.47 1013.76 1014.04
1010.82 1010.55 1010.14 1009.64 1009.11 1008.66 1008.36 1008.28 1008.47 1008.93 1009.63 1010.51 1011.51 1012.51 1013.45 1014.25 1014.89 1015.34 1015.64 1015.81 1015.91 1015.99 1016.08 1016.22 1016.39 1016.58 1016.75 1016.85 1016.85 1016.70 1016.41 1015.97 1015.43 1014.82 1014.21 1013.67 1013.23 1012.93 1012.79 1012.79 1012.92 1013.14 1013.40 1013.68
1010.62 1010.39 1010.04 1009.60 1009.15 1008.75 1008.50 1008.46 1008.67 1009.14 1009.84 1010.72 1011.70 1012.68 1013.59 1014.37 1014.97 1015.39 1015.64 1015.78 1015.86 1015.92 1016.01 1016.15 1016.35 1016.57 1016.77 1016.91 1016.94 1016.83 1016.54 1016.11 1015.55 1014.91 1014.25 1013.64 1013.13 1012.76 1012.54 1012.48 1012.54 1012.71 1012.95 1013.20
1010.29 1010.14 1009.88 1009.56 1009.21 1008.92 1008.76 1008.77 1009.02 1009.49 1010.17 1011.01 1011.94 1012.87 1013.72 1014.44 1014.98 1015.36 1015.57 1015.68 1015.73 1015.77 1015.85 1015.99 1016.19 1016.42 1016.65 1016.82 1016.88 1016.79 1016.54 1016.12 1015.57 1014.92 1014.24 1013.59 1013.02 1012.58 1012.28 1012.14 1012.14 1012.25 1012.43 1012.67
1009.91 1009.87 1009.75 1009.57 1009.37 1009.21 1009.14 1009.23 1009.51 1009.98 1010.62 1011.40 1012.25 1013.10 1013.87 1014.51 1015.00 1015.32 1015.50 1015.58 1015.60 1015.62 1015.69 1015.82 1016.01 1016.24 1016.47 1016.66 1016.74 1016.68 1016.46 1016.07 1015.54 1014.91 1014.22 1013.55 1012.94 1012.43 1012.07 1011.84 1011.76 1011.80 1011.93 1012.13
1009.63 1009.70 1009.73 1009.71 1009.67 1009.65 1009.70 1009.86 1010.16 1010.61 1011.21 1011.91 1012.67 1013.41 1014.09 1014.65 1015.07 1015.34 1015.49 1015.54 1015.55 1015.55 1015.60 1015.72 1015.89 1016.10 1016.33 1016.51 1016.60 1016.56 1016.37 1016.02 1015.52 1014.91 1014.24 1013.56 1012.92 1012.36 1011.93 1011.63 1011.46 1011.42 1011.49 1011.64
1009.54 1009.74 1009.92 1010.06 1010.17 1010.29 1010.44 1010.66 1010.97 1011.40 1011.93 1012.53 1013.18 1013.81 1014.39 1014.87 1015.22 1015.46 1015.58 1015.62 1015.62 1015.62 1015.65 1015.75 1015.89 1016.08 1016.28 1016.44 1016.52 1016.49 1016.32 1016.00 1015.54 1014.96 1014.31 1013.63 1012.97 1012.38 1011.88 1011.50 1011.26 1011.14 1011.13 1011.23
1009.75 1010.06 1010.36 1010.64 1010.89 1011.11 1011.34 1011.60 1011.91 1012.29 1012.74 1013.24 1013.77 1014.30 1014.77 1015.17 1015.47 1015.67 1015.78 1015.82 1015.83 1015.83 1015.86 1015.93 1016.04 1016.19 1016.35 1016.47 1016.53 1016.49 1016.32 1016.02 1015.58 1015.03 1014.40 1013.73 1013.06 1012.44 1011.90 1011.46 1011.14 1010.94 1010.86 1010.90
1010.25 1010.65 1011.05 1011.43 1011.77 1012.07 1012.34 1012.61 1012.90 1013.22 1013.58 1013.98 1014.40 1014.81 1015.20 1015.53 1015.78 1015.97 1016.08 1016.13 1016.14 1016.15 1016.17 1016.22 1016.30 1016.40 1016.50 1016.58 1016.59 1016.52 1016.34 1016.03 1015.61 1015.08 1014.47 1013.81 1013.14 1012.50 1011.93 1011.43 1011.05 1010.79 1010.64 1010.62
1011.01 1011.45 1011.91 1012.34 1012.73 1013.06 1013.35 1013.60 1013.85 1014.10 1014.37 1014.67 1014.98 1015.30 1015.61 1015.88 1016.11 1016.29 1016.40 1016.47 1016.51 1016.53 1016.55 1016.57 1016.61 1016.66 1016.70 1016.70 1016.66 1016.54 1016.32 1016.00 1015.57 1015.05 1014.45 1013.81 1013.15 1012.51 1011.91 1011.39 1010.96 1010.64 1010.44 1010.35
1011.93 1012.38 1012.85 1013.29 1013.68 1014.00 1014.27 1014.48 1014.67 1014.85 1015.04 1015.25 1015.48 1015.72 1015.97 1016.20 1016.41 1016.59 1016.72 1016.81 1016.87 1016.90 1016.91 1016.91 1016.91 1016.90 1016.87 1016.80 1016.68 1016.50 1016.24 1015.89 1015.45 1014.93 1014.34 1013.71 1013.07 1012.43 1011.83 1011.29 1010.83 1010.48 1010.23 1010.09
1012.91 1013.33 1013.76 1014.16 1014.52 1014.80 1015.03 1015.19 1015.33 1015.44 1015.56 1015.70 1015.86 1016.05 1016.25 1016.46 1016.66 1016.84 1016.99 1017.10 1017.17 1017.21 1017.21 1017.19 1017.15 1017.08 1016.98 1016.84 1016.65 1016.40 1016.09 1015.71 1015.25 1014.73 1014.16 1013.54 1012.91 1012.29 1011.70 1011.16 1010.69 1010.31 1010.03 1009.86
1013.86 1014.21 1014.57 1014.91 1015.20 1015.43 1015.60 1015.72 1015.80 1015.87 1015.94 1016.03 1016.15 1016.30 1016.48 1016.67 1016.87 1017.05 1017.20 1017.33 1017.40 1017.44 1017.43 1017.39 1017.30 1017.18 1017.02 1016.82 1016.57 1016.27 1015.92 1015.51 1015.04 1014.52 1013.96 1013.37 1012.76 1012.16 1011.58 1011.05 1010.58 1010.19 1009.89 1009.69
1014.70 1014.98 1015.26 1015.52 1015.74 1015.90 1016.02 1016.10 1016.15 1016.19 1016.23 1016.30 1016.40 1016.53 1016.69 1016.87 1017.06 1017.23 1017.39 1017.50 1017.58 1017.60 1017.58 1017.51 1017.39 1017.23 1017.02 1016.78 1016.49 1016.16 1015.78 1015.35 1014.89 1014.38 1013.84 1013.27 1012.70 1012.12 1011.57 1011.05 1010.59 1010.19 1009.88 1009.66
1015.43 1015.62 1015.82 1016.00 1016.16 1016.27 1016.35 1016.40 1016.44 1016.47 1016.51 1016.57 1016.67 1016.79 1016.94 1017.10 1017.27 1017.42 1017.56 1017.66 1017.71 1017.72 1017.67 1017.58 1017.44 1017.25 1017.03 1016.76 1016.46 1016.12 1015.74 1015.33 1014.88 1014.40 1013.89 1013.36 1012.82 1012.27 1011.74 1011.24 1010.78 1010.38 1010.05 1009.82
1016.06 1016.18 1016.31 1016.43 1016.53 1016.61 1016.67 1016.71 1016.75 1016.78 1016.83 1016.90 1017.00 1017.11 1017.24 1017.38 1017.52 1017.64 1017.74 1017.80 1017.82 1017.80 1017.73 1017.62 1017.47 1017.28 1017.06 1016.80 1016.52 1016.20 1015.86 1015.48 1015.07 1014.63 1014.16 1013.67 1013.16 1012.65 1012.14 1011.65 1011.20 1010.79 1010.46 1010.20
1016.61 1016.69 1016.77 1016.85 1016.91 1016.97 1017.02 1017.07 1017.12 1017.17 1017.23 1017.31 1017.40 1017.50 1017.60 1017.71 1017.80 1017.87 1017.92 1017.94 1017.92 1017.86 1017.77 1017.65 1017.50 1017.33 1017.13 1016.91 1016.67 1016.40 1016.10 1015.78 1015.43 1015.04 1014.62 1014.18 1013.71 1013.23 1012.75 1012.27 1011.83 1011.42 1011.07 1010.79
1017.12 1017.17 1017.22 1017.27 1017.32 1017.37 1017.43 1017.48 1017.54 1017.61 1017.68 1017.76 1017.83 1017.91 1017.98 1018.03 1018.07 1018.08 1018.07 1018.03 1017.97 1017.88 1017.78 1017.66 1017.52 1017.38 1017.22 1017.05 1016.87 1016.66 1016.44 1016.18 1015.89 1015.57 1015.21 1014.82 1014.39 1013.95 1013.49 1013.04 1012.60 1012.19 1011.84 1011.54
1017.58 1017.62 1017.66 1017.70 1017.74 1017.79 1017.84 1017.90 1017.97 1018.04 1018.11 1018.18 1018.24 1018.28 1018.30 1018.30 1018.27 1018.22 1018.15 1018.06 1017.96 1017.85 1017.73 1017.61 1017.50 1017.39 1017.29 1017.18 1017.06 1016.93 1016.77 1016.59 1016.37 1016.11 1015.81 1015.47 1015.10 1014.69 1014.27 1013.84 1013.43 1013.03 1012.68 1012.38
1017.97 1018.01 1018.05 1018.08 1018.11 1018.16 1018.21 1018.27 1018.34 1018.40 1018.46 1018.50 1018.53 1018.53 1018.50 1018.45 1018.36 1018.26 1018.13 1018.00 1017.86 1017.73 1017.61 1017.51 1017.42 1017.35 1017.29 1017.24 1017.19 1017.12 1017.03 1016.91 1016.76 1016.56 1016.31 1016.03 1015.71 1015.35 1014.97 1014.59 1014.21 1013.84 1013.51 1013.22
1018.26 1018.30 1018.33 1018.35 1018.38 1018.42 1018.47 1018.52 1018.57 1018.62 1018.65 1018.67 1018.66 1018.62 1018.55 1018.44 1018.32 1018.17 1018.01 1017.85 1017.69 1017.56 1017.44 1017.35 1017.29 1017.25 1017.23 1017.22 1017.21 1017.19 1017.15 1017.08 1016.98 1016.83 1016.64 1016.41 1016.14 1015.84 1015.53 1015.20 1014.87 1014.56 1014.27 1014.01
1018.42 1018.45 1018.47 1018.48 1018.51 1018.53 1018.56 1018.60 1018.63 1018.66 1018.67 1018.66 1018.62 1018.55 1018.44 1018.31 1018.16 1017.99 1017.81 1017.64 1017.48 1017.35 1017.24 1017.17 1017.12 1017.11 1017.11 1017.12 1017.14 1017.14 1017.13 1017.09 1017.01 1016.91 1016.76 1016.58 1016.37 1016.14 1015.89 1015.64 1015.38 1015.14 1014.91 1014.70
1018.41 1018.43 1018.44 1018.45 1018.46 1018.47 1018.49 1018.51 1018.53 1018.54 1018.53 1018.50 1018.44 1018.35 1018.24 1018.10 1017.94 1017.77 1017.60 1017.44 1017.29 1017.17 1017.07 1017.01 1016.97 1016.96 1016.96 1016.98 1016.99 1017.00 1016.99 1016.95 1016.90 1016.82 1016.71 1016.58 1016.43 1016.26 1016.09 1015.92 1015.75 1015.59 1015.44 1015.31
Thickness
5818 5833 5840 5835 5833 5836 5832 5831 5823 5823 5822 5826 5833 5834 5834 5834 5831 5826 5821 5818 5814 5808 5804 5800 5796 5792 5788 5784 5781 5777 5771 5766 5762 5759 5757 5753 5751 5748 5745 5743 5742 5739 5737 5735
5803 5823 5829 5831 5836 5837 5835 5835 5832 5830 5825 5841 5839 5836 5831 5828 5825 5819 5816 5814 5811 5807 5802 5796 5792 5788 5784 5781 5778 5774 5768 5763 5760 5757 5753 5750 5746 5744 5741 5739 5736 5734 5731 5729
5787 5810 5815 5807 5829 5833 5833 5838 5835 5822 5827 5837 5828 5825 5823 5823 5820 5816 5813 5811 5807 5804 5800 5795 5791 5787 5781 5778 5775 5770 5764 5760 5757 5753 5749 5746 5743 5740 5736 5734 5731 5728 5725 5722
5782 5789 5772 5812 5848 5846 5837 5837 5840 5836 5835 5832 5825 5823 5823 5823 5817 5812 5810 5806 5803 5801 5797 5794 5790 5785 5780 5776 5770 5765 5760 5756 5752 5749 5745 5741 5738 5734 5731 5729 5726 5723 5719 5717
5773 5772 5783 5811 5833 5837 5826 5821 5837 5832 5829 5828 5825 5815 5809 5816 5815 5810 5806 5803 5800 5798 5795 5790 5785 5781 5775 5769 5764 5759 5754 5751 5748 5745 5740 5737 5733 5729 5727 5724 5720 5717 5715 5711
5767 5762 5764 5797 5829 5844 5828 5803 5828 5828 5821 5819 5814 5794 5792 5807 5807 5804 5801 5799 5796 5793 5789 5782 5778 5775 5768 5762 5757 5752 5749 5746 5744 5740 5736 5731 5728 5725 5722 5718 5715 5712 5708 5705
5759 5761 5776 5810 5828 5828 5790 5792 5820 5821 5816 5813 5803 5796 5797 5801 5798 5796 5793 5791 5789 5785 5779 5775 5772 5767 5760 5755 5750 5748 5746 5742 5739 5735 5731 5727 5723 5720 5716 5713 5709 5705 5701 5698
5757 5754 5764 5807 5811 5800 5796 5812 5814 5811 5809 5803 5798 5794 5793 5790 5787 5786 5783 5781 5779 5774 5769 5767 5765 5759 5751 5746 5745 5743 5739 5735 5731 5728 5726 5723 5718 5714 5711 5707 5702 5698 5694 5690
5764 5764 5783 5799 5800 5805 5809 5803 5803 5802 5800 5797 5790 5785 5783 5780 5777 5775 5773 5771 5769 5764 5759 5757 5755 5750 5743 5740 5738 5734 5730 5726 5723 5721 5717 5714 5710 5707 5704 5700 5696 5692 5688 5684
5760 5765 5779 5789 5795 5797 5798 5796 5797 5795 5793 5789 5782 5777 5773 5769 5766 5763 5762 5760 5758 5753 5748 5745 5743 5740 5736 5733 5729 5725 5720 5717 5715 5712 5708 5704 5701 5698 5695 5691 5688 5685 5681 5678
5749 5757 5765 5773 5781 5784 5786 5788 5786 5784 5784 5780 5774 5768 5764 5759 5756 5753 5751 5750 5747 5743 5738 5734 5732 5729 5727 5725 5721 5715 5712 5709 5707 5704 5700 5695 5690 5685 5683 5678 5677 5675 5674 5670
5738 5749 5753 5754 5768 5775 5773 5773 5774 5772 5769 5768 5765 5758 5754 5750 5747 5744 5741 5739 5736 5732 5729 5725 5723 5720 5717 5716 5712 5707 5704 5701 5699 5697 5693 5689 5682 5676 5670 5668 5665 5664 5662 5659
5747 5753 5752 5755 5760 5763 5761 5761 5762 5761 5757 5754 5752 5749 5744 5740 5737 5734 5731 5728 5725 5722 5719 5717 5714 5710 5708 5706 5703 5699 5695 5693 5691 5689 5685 5681 5676 5671 5665 5658 5654 5652 5650 5647
5743 5743 5740 5741 5744 5750 5750 5749 5749 5748 5746 5743 5740 5737 5732 5728 5725 5721 5719 5717 5715 5713 5710 5707 5704 5701 5699 5698 5694 5691 5688 5685 5683 5680 5677 5673 5669 5666 5661 5656 5650 5645 5639 5635
5728 5732 5730 5731 5734 5735 5736 5735 5732 5730 5730 5728 5727 5723 5719 5715 5711 5709 5709 5708 5705 5702 5699 5696 5693 5691 5691 5689 5685 5682 5680 5677 5674 5672 5669 5666 5662 5659 5655 5650 5645 5639 5632 5626
5714 5719 5720 5718 5718 5722 5723 5721 5718 5717 5716 5715 5713 5710 5708 5705 5702 5699 5699 5697 5694 5691 5688 5685 5683 5682 5681 5679 5676 5673 5670 5667 5665 5664 5662 5658 5655 5651 5647 5642 5637 5632 5626 5621
5699 5700 5703 5704 5707 5709 5711 5711 5709 5708 5706 5703 5700 5699 5696 5694 5691 5688 5687 5686 5684 5681 5679 5676 5674 5673 5672 5670 5668 5666 5663 5660 5656 5656 5653 5650 5646 5642 5638 5634 5629 5624 5619 5614
5696 5697 5699 5699 5699 5699 5699 5700 5699 5697 5695 5693 5691 5688 5685 5682 5678 5676 5675 5675 5673 5670 5668 5666 5664 5663 5662 5661 5659 5657 5655 5653 5650 5647 5643 5640 5636 5633 5629 5625 5621 5617 5612 5606
5688 5688 5689 5690 5690 5689 5688 5687 5687 5686 5684 5683 5679 5676 5674 5671 5669 5667 5665 5663 5660 5657 5656 5656 5652 5653 5652 5651 5649 5648 5646 5644 5641 5637 5634 5628 5627 5625 5621 5617 5612 5609 5604 5599
5677 5678 5679 5678 5679 5678 5677 5677 5676 5675 5674 5672 5669 5666 5663 5661 5658 5657 5655 5652 5650 5648 5647 5645 5644 5644 5643 5642 5638 5639 5638 5635 5632 5628 5625 5621 5618 5615 5612 5608 5604 5600 5595 5591
5666 5667 5667 5667 5667 5666 5666 5666 5665 5663 5663 5661 5657 5655 5652 5650 5649 5646 5644 5641 5639 5638 5637 5635 5635 5634 5633 5630 5628 5630 5629 5625 5622 5618 5615 5612 5608 5605 5601 5598 5594 5590 5586 5581
5655 5656 5656 5657 5656 5655 5655 5656 5655 5654 5651 5649 5647 5646 5643 5640 5639 5637 5636 5633 5631 5628 5628 5628 5627 5623 5622 5620 5622 5622 5619 5616 5613 5609 5606 5602 5599 5595 5591 5588 5585 5581 5578 5574
5644 5645 5646 5646 5646 5645 5646 5646 5645 5643 5641 5640 5638 5637 5635 5633 5632 5629 5626 5626 5625 5620 5620 5619 5615 5613 5611 5613 5613 5612 5609 5606 5603 5600 5596 5593 5590 5587 5583 5580 5577 5573 5569 5565
5634 5635 5636 5637 5638 5636 5635 5635 5635 5634 5633 5632 5632 5630 5628 5626 5625 5624 5621 5617 5615 5612 5612 5608 5605 5604 5602 5604 5604 5602 5600 5597 5594 5591 5588 5585 5583 5579 5575 5571 5568 5564 5560 5556
5626 5627 5628 5628 5628 5628 5627 5628 5627 5626 5626 5625 5624 5623 5622 5621 5618 5617 5614 5610 5606 5604 5604 5600 5598 5596 5596 5597 5596 5594 5591 5588 5585 5583 5580 5577 5573 5570 5566 5563 5559 5555 5552 5548
5619 5619 5620 5621 5622 5622 5624 5623 5622 5621 5620 5618 5616 5616 5615 5613 5611 5609 5606 5603 5601 5597 5597 5594 5592 5589 5590 5588 5587 5585 5583 5580 5577 5574 5572 5569 5565 5561 5558 5554 5551 5547 5543 5539
5613 5614 5614 5615 5617 5618 5619 5618 5616 5615 5614 5612 5608 5608 5607 5605 5603 5601 5599 5596 5594 5591 5590 5588 5586 5584 5583 5581 5579 5577 5574 5572 5569 5566 5564 5561 5557 5553 5550 5546 5542 5538 5534 5530